This demonstration page uses our WeatherBlox Daily Observations layout. Learn more.

40.92945, -100.16068

Hourly Observations for June 19, 2018

Temp ( °F °C ) Dew Point ( °F °C ) Humidity (%) Winds ( mph kmh ) Pressure ( in mb ) Visibility ( mi km ) Precip ( " mm )
12:15 am 00:15 Cloudy 70 21 66 18.8 87 87 N 7 11 29.91 1013 10 16.0934 0 0
12:35 am 00:35 Cloudy 69 20.7 66 18.9 89 89 NE 5 7 29.91 1013 10 16.0934 0 0
12:55 am 00:55 Cloudy 69 20.7 66 19 90 90 NNE 9 15 29.91 1013 10 16.0934 0 0
1:15 am 01:15 Cloudy 70 21 67 19.2 90 90 N 7 11 29.91 1013 10 16.0934 0 0
1:35 am 01:35 Cloudy 70 21.1 67 19.2 89 89 N 9 15 29.88 1012 10 16.0934 0 0
1:55 am 01:55 Cloudy 70 21.2 66 19.1 88 88 NW 9 15 29.88 1012 10 16.0934 0 0
2:15 am 02:15 Cloudy 70 21.1 66 19.1 88 88 N 8 13 29.88 1012 7 11.26538 0 0
2:35 am 02:35 Cloudy 69 20.7 66 19.1 91 91 NNE 3 6 29.88 1012 7 11.26538 0 0
2:55 am 02:55 Cloudy 69 20.7 66 19.1 91 91 NW 10 17 29.88 1012 7 11.26538 0 0
3:15 am 03:15 Cloudy 69 20.5 66 18.9 91 91 N 12 19 29.88 1012 10 16.0934 0 0
3:35 am 03:35 Cloudy 69 20.3 65 18.3 88 88 W 22 35 29.94 1014 10 16.0934 0 0
3:55 am 03:55 Cloudy 67 19.3 64 18 92 92 WNW 16 26 29.97 1015 2.5 4.02335 0.19 4.826
4:15 am 04:15 Cloudy with Nearby Thunderstorms 66 18.8 64 17.8 94 94 N 18 30 29.97 1015 4 6.43736 0.22 5.588
4:35 am 04:35 Mostly Cloudy with Rain 65 18.6 64 17.5 93 93 N 9 15 29.97 1015 10 16.0934 0.25 6.35
4:55 am 04:55 Partly Cloudy with Light Rain 66 19 64 18 94 94 N 13 20 29.94 1014 10 16.0934 0.25 6.35
5:15 am 05:15 Partly Cloudy 66 19 64 17.7 92 92 N 8 13 29.94 1014 10 16.0934 0 0
5:35 am 05:35 Clear with Nearby Thunderstorms 66 19 64 17.7 92 92 NNW 5 7 29.94 1014 10 16.0934 0 0
5:55 am 05:55 Clear 66 19 64 17.6 92 92 NNW 5 7 29.94 1014 10 16.0934 0 0
6:15 am 06:15 Sunny 66 18.8 64 17.6 93 93 NW 8 13 29.94 1014 10 16.0934 0 0
6:35 am 06:35 Sunny 66 18.7 64 17.5 93 93 N 6 9 29.97 1015 10 16.0934 0 0
6:55 am 06:55 Sunny 66 19 64 17.6 92 92 N 6 9 29.97 1015 10 16.0934 0 0
7:15 am 07:15 Sunny 66 19 64 17.7 92 92 N 5 7 29.97 1015 10 16.0934 0 0
7:35 am 07:35 Sunny 67 19.3 64 18 92 92 N 6 9 29.97 1015 10 16.0934 0 0
7:55 am 07:55 Partly Cloudy 67 19.5 64 17.6 89 89 NNE 6 9 29.97 1015 10 16.0934 0 0
8:15 am 08:15 Mostly Cloudy 68 19.8 64 17.8 88 88 N 7 11 29.94 1014 10 16.0934 0 0
8:35 am 08:35 Cloudy 69 20.3 65 18.1 87 87 NNE 9 15 29.91 1013 10 16.0934 0 0
8:55 am 08:55 Cloudy 69 20.5 64 17.9 85 85 NNE 10 17 29.94 1014 10 16.0934 0 0
9:15 am 09:15 Cloudy 69 20.6 64 18 85 85 NNE 10 17 29.94 1014 10 16.0934 0 0
9:35 am 09:35 Cloudy 70 21.2 65 18.3 84 84 NNE 8 13 29.91 1013 10 16.0934 0 0
9:55 am 09:55 Mostly Cloudy 73 22.7 65 18.5 77 77 ENE 12 19 29.91 1013 10 16.0934 0 0
10:15 am 10:15 Mostly Cloudy 74 23.2 67 19.3 79 79 E 13 20 29.91 1013 10 16.0934 0 0
10:35 am 10:35 Mostly Cloudy 75 23.8 66 18.9 74 74 E 13 20 29.88 1012 10 16.0934 0 0
10:55 am 10:55 undefined N/A N/A N/A undefined N/A N/A N/A 0 0
11:15 am 11:15 undefined N/A N/A N/A undefined N/A N/A N/A 0 0
11:35 am 11:35 undefined N/A N/A N/A E 12 19 N/A N/A 0 0
11:55 am 11:55 Cloudy 75 24 66 18.7 72 72 E 9 15 29.88 1012 10 16.0934 0 0
12:15 pm 12:15 Mostly Cloudy 76 24.2 66 18.9 72 72 ENE 9 15 29.88 1012 10 16.0934 0 0
12:35 pm 12:35 Partly Cloudy 78 25.4 67 19.2 69 69 E 9 15 29.88 1012 7 11.26538 0 0
12:55 pm 12:55 Mostly Cloudy 78 25.7 66 19.1 67 67 NE 9 15 29.88 1012 10 16.0934 0 0
1:15 pm 13:15 Cloudy 79 26.2 67 19.2 65 65 NE 7 11 29.88 1012 10 16.0934 0 0
1:35 pm 13:35 Cloudy 79 26.1 66 19 65 65 NE 9 15 29.85 1011 10 16.0934 0 0
1:55 pm 13:55 Cloudy 79 26 67 19.4 67 67 NNE 9 15 29.85 1011 10 16.0934 0 0
2:15 pm 14:15 Cloudy 78 25.7 65 18.6 65 65 NE 7 11 29.85 1011 10 16.0934 0 0
2:35 pm 14:35 Cloudy 78 25.8 66 18.7 65 65 NE 9 15 29.85 1011 10 16.0934 0 0
2:55 pm 14:55 Cloudy 78 25.6 66 18.9 67 67 NE 9 15 29.85 1011 10 16.0934 0 0
3:15 pm 15:15 Cloudy 78 25.6 67 19.2 68 68 NE 9 15 29.85 1011 10 16.0934 0 0
3:35 pm 15:35 Cloudy 79 25.9 67 19.6 68 68 NNE 14 22 29.85 1011 10 16.0934 0 0
3:55 pm 15:55 Mostly Cloudy 78 25.3 67 19.4 70 70 NNE 13 20 29.83 1010 10 16.0934 0 0
4:15 pm 16:15 Partly Cloudy 76 24.7 67 19.4 72 72 NE 14 22 29.83 1010 10 16.0934 0 0
4:35 pm 16:35 Sunny 76 24.6 67 19.2 72 72 NE 15 24 29.83 1010 10 16.0934 0 0
4:55 pm 16:55 Sunny 74 23.5 66 18.8 75 75 NE 10 17 29.83 1010 10 16.0934 0 0
5:15 pm 17:15 Sunny with Nearby Thunderstorms 74 23.1 66 19 78 78 NE 12 19 29.8 1009 10 16.0934 0 0
5:35 pm 17:35 Sunny with Nearby Thunderstorms 73 22.7 66 19 80 80 NE 12 19 29.8 1009 10 16.0934 0 0
5:55 pm 17:55 Partly Cloudy 73 22.6 66 19 80 80 NNE 15 24 29.77 1008 10 16.0934 0 0
6:15 pm 18:15 Mostly Cloudy 73 22.5 66 18.7 79 79 NNE 15 24 29.8 1009 10 16.0934 0 0
6:35 pm 18:35 Cloudy 73 22.5 66 18.7 79 79 NE 13 20 29.8 1009 10 16.0934 0 0
6:55 pm 18:55 Cloudy with Nearby Thunderstorms 72 22.3 65 18.6 80 80 NE 10 17 29.83 1010 10 16.0934 0 0
7:15 pm 19:15 Mostly Cloudy 72 22.2 65 18.6 80 80 NNE 12 19 29.83 1010 10 16.0934 0 0
7:35 pm 19:35 Cloudy 72 22.2 66 18.7 81 81 NE 13 20 29.83 1010 10 16.0934 0 0
7:55 pm 19:55 Cloudy 72 22.1 65 18.5 80 80 NE 13 20 29.83 1010 10 16.0934 0 0
8:15 pm 20:15 Mostly Cloudy 71 21.9 65 18.3 80 80 ENE 14 22 29.8 1009 10 16.0934 0 0
8:35 pm 20:35 Cloudy 71 21.8 65 18.3 81 81 NE 10 17 29.83 1010 10 16.0934 0 0
8:55 pm 20:55 Cloudy with Light Rain 71 21.7 65 18.2 81 81 NNE 13 20 29.85 1011 10 16.0934 0 0
9:15 pm 21:15 Cloudy with Heavy Thunderstorms 69 20.3 65 18.5 89 89 NE 9 15 29.88 1012 2 3.21868 0.23 5.842
9:35 pm 21:35 Cloudy 67 19.6 65 18.3 92 92 NW 13 20 29.97 1015 1.5 2.41401 0.86 21.844
9:55 pm 21:55 Cloudy 63 17 60 15.8 93 93 NNW 22 35 29.97 1015 1.25 2.011675 1.72 43.688
10:15 pm 22:15 Cloudy with Nearby Thunderstorms 63 17.1 58 14.6 85 85 N 7 11 29.94 1014 5 8.0467 0.16 4.064
10:35 pm 22:35 Cloudy with Light Rain 64 17.5 61 15.9 90 90 NE 7 11 29.94 1014 10 16.0934 0.17 4.318
10:55 pm 22:55 Cloudy with Rain 64 18 63 17 94 94 NW 5 7 29.97 1015 10 16.0934 0.2 5.08
11:15 pm 23:15 Cloudy with Heavy Rain 64 17.9 62 16.7 93 93 NW 6 9 29.97 1015 5 8.0467 0.06 1.524
11:35 pm 23:35 Cloudy with Heavy Rain 64 17.6 62 16.7 95 95 NNE 8 13 29.94 1014 5 8.0467 0.17 4.318
11:55 pm 23:55 Cloudy with Rain 65 18.3 64 17.5 95 95 NE 12 19 29.91 1013 5 8.0467 0.26 6.604

Powered by AerisWeather